Regional Weather Roundup
Issued by NWS

Home | Current Version | Previous Version | Text Only | Print | Product List | Glossary On
Versions: 1 2 3 4 5 6 7 8 9 10 11 12 13 14 15 16 17 18 19 20 21 22 23 24 25 26 27
000
ASUS42 KKEY 170410
RWRKEY

FLORIDA REGIONAL WEATHER ROUNDUP FOR THE FLORIDA KEYS
NATIONAL WEATHER SERVICE KEY WEST FLORIDA
1100 PM EST SAT DEC 16 2017

...SOUTH FLORIDA AND THE KEYS...

CITY           SKY/WX    TMP DP  RH WIND       PRES   REMARKS
FORT MYERS     MOCLDY    65  59  81 E7        30.23S
SW REGIONAL AP PTCLDY    62  60  93 NE6       30.24R
NAPLES         CLOUDY    63  60  90 NE8       30.22S
MIAMI          MOCLDY    72  61  68 NE5       30.22R
WEST KENDALL   PTCLDY    63  58  83 CALM      30.21S
HOMESTEAD      PTCLDY    68  66  95 NE7       30.20S
MARATHON       CLEAR     69  64  84 NE7       30.20S
KEY WEST INTL  CLOUDY    71  64  78 NE6       30.20S

...INTERNATIONAL WEATHER...

CITY           SKY/WX    TMP DP  RH WIND       PRES   REMARKS
NASSAU BAHAMAS NOT AVBL
CANCUN MEXICO  PTCLDY    77  75  94 E7        30.11R
COZUMEL MEXICO PTCLDY    75  73  94 E6        30.08R

ADJACENT COASTAL WATERS...

STATION/POSITION TIME  SKY/WX   TEMP    WIND        PRES    WAVE
                                AIR SEA DIR/SP/G            HT/PER
                 (UTC)          (F)     (DEG/KT/KT) (MB)    (FT/S)
PULASKI SHOAL LI 0400            74      90/ 20/ 21 1022.3F
SAND KEY         0350            72                 1023.1S
LONG KEY         NOT AVBL
MOLASSES REEF    0400            75 77   90/ 16/ 17 1022.7F
FOWEY ROCKS      0400            75 75   70/ 16/ 18 1023.4F
Buoy 42097       0330               77                N/A     3/ 5

$$




USA.gov is the U.S. government's official web portal to all federal, state and local government web resources and services.